Regional Weather Roundup
Issued by NWS Wakefield, VA

Home | Current Version | Previous Version | Graphics & Text | Print | Product List | Glossary On
Versions: 1 2 3 4 5 6 7 8 9 10 11 12 13 14 15 16 17 18 19 20 21 22 23 24 25 26 27 28 29 30 31 32 33 34 35 36 37 38 39 40 41 42 43 44 45 46 47 48 49 50
000
ASUS41 KAKQ 211010
RWRAKQ

REGIONAL WEATHER ROUNDUP
NATIONAL WEATHER SERVICE WAKEFIELD VA
500 AM EST SUN DEC 21 2014

Note: "fair" indicates few or no clouds below 12,000 feet with no
significant weather and/or obstructions to visibility. * = Denotes
station may not report precipitation (e.g., rain,snow,etc.),
thunder or fog.

VAZ042-051-052>054-056-211100-
NORTHERN VIRGINIA

CITY           SKY/WX    TMP DP  RH WIND       PRES   REMARKS
WASH NATIONAL  CLOUDY    37  24  59 NE3       30.32S
DULLES         CLOUDY    32  23  69 N5        30.30S
FORT BELVOIR   CLOUDY    32  27  81 NW1       30.31F
QUANTICO       CLOUDY    33  26  75 NW3       30.33R
FREDERICKSBRG* CLOUDY    34  29  82 CALM      30.30S
STAFFORD*      CLOUDY    32  28  84 CALM      30.35R
WARRENTON      CLOUDY    33  32  95 CALM      30.30R
CULPEPER*      CLOUDY    34  30  86 CALM      30.30R
MANASSAS*      CLOUDY    32  30  93 CALM      30.31S
LEESBURG*      CLOUDY    32  28  86 N3        30.31S
WINCHESTER     CLOUDY    32  21  64 CALM      30.28S
FRONT ROYAL*   CLOUDY    32  25  74 CALM      30.27F
LURAY*         CLOUDY    32  28  86 E3        30.26S
$$

VAZ048-049-060>072-079>083-211100-
CENTRAL AND SOUTH CENTRAL VIRGINIA

CITY           SKY/WX    TMP DP  RH WIND       PRES   REMARKS
RICHMOND       CLOUDY    36  25  64 CALM      30.29F
CHESTERFIELD*  CLOUDY    36  18  48 CALM      30.30S
PETERSBURG*    CLOUDY    35  32  88 CALM      30.30S
HANOVER        CLOUDY    33  28  81 CALM      30.31S
TAPPAHANNOCK*  CLOUDY    33  27  79 CALM      30.30F
QUINTON*       CLOUDY    33  29  85 CALM      30.29F
CHARLOTTSVILLE CLOUDY    32  25  75 CALM      30.27S
GORDONSVILLE*  CLOUDY    32  28  86 CALM      30.28S
ORANGE*        CLOUDY    32  30  93 CALM      30.30S
LOUISA*        CLOUDY    34  30  86 CALM      30.26F
BUMPASS*       CLOUDY    32  26  80 CALM      30.28F
FARMVILLE*     CLOUDY    36  28  73 CALM      30.27S
CREWE*         CLOUDY    33  30  87 CALM      30.27F
FORT PICKETT*  CLOUDY    34  27  76 CALM      30.28F
CHASE CITY*    CLOUDY    37  35  92 CALM      30.27S
CLARKSVILLE*   CLOUDY    36  34  93 CALM      30.26S
SOUTH HILL*    CLOUDY    33  30  86 CALM      30.33S
LAWRENCEVILLE* CLOUDY    34  29  82 CALM      30.27F
EMPORIA*       CLOUDY    32  30  93 NE3       30.30S
$$

VAZ088>098-211100-
SOUTHEAST VIRGINIA

CITY           SKY/WX    TMP DP  RH WIND       PRES   REMARKS
NORFOLK        CLOUDY    33  29  85 CALM      30.28F
VIRGINIA BEACH PTCLDY    28  25  88 CALM      30.28S
NORFOLK NAVAL  MOCLDY    40  27  59 N9        30.30S
WEST POINT*    CLOUDY    36  29  77 CALM      30.32S
SALUDA*        CLOUDY    35  26  68 N3        30.29F
NEWPORT NEWS   CLOUDY    34  28  79 CALM      30.30S
LANGLEY AFB    CLOUDY    31  28  88 NW5       30.30F
FORT EUSTIS    CLOUDY    34  29  84 NE1       30.28F
WILLIAMSBURG*  CLOUDY    37  32  81 CALM      30.31R
HR EXEC AP*    CLOUDY    28  25  86 CALM      30.31S
FRANKLIN*      CLOUDY    30  30 100 CALM      30.29F
WAKEFIELD      CLOUDY    33  29  85 CALM      30.30R
$$

VAZ020-022-025-037-045-211100-
WEST CENTRAL AND SOUTHWEST VIRGINIA

CITY           SKY/WX    TMP DP  RH WIND       PRES   REMARKS
STAUNTON*      CLOUDY    32  27  79 CALM      30.26S
WAYNESBORO*    CLOUDY    31  25  79 CALM      30.23S
HOT SPRINGS VA CLOUDY    29  29 100 W7        30.10S FOG
LYNCHBURG      CLOUDY    33  29  85 CALM      30.26S
DANVILLE       CLOUDY    37  32  82 CALM      30.26S
SOUTH BOSTON*  CLOUDY    35  33  90 CALM      30.27S
MARTINSVILLE   CLOUDY    37  33  87 CALM      30.26S
ROANOKE        CLOUDY    35  27  72 CALM      30.25S
BLACKSBURG     CLOUDY    33  31  91 CALM      30.22F
DUBLIN*        CLOUDY    37  36  96 CALM      30.21S
MARION*        CLOUDY    37  36  93 W3        30.20F FOG
HILLSVILLE*    CLOUDY    34  31  90 CALM      30.17S
RICHLANDS*     CLOUDY    32  31  94 CALM      30.18S
WISE*          CLEAR     30  30 100 CALM      30.18F FOG
ABINGDON*      CLOUDY    38  37  97 CALM      30.19F FOG
$$

MDZ021>025-VAZ099-100-211100-
SOUTHERN MARYLAND AND THE DELMARVA PENINSULA

CITY           SKY/WX    TMP DP  RH WIND       PRES   REMARKS
PATUXENT RIVER CLOUDY    34  26  72 W3        30.30S
BAY BRIDGE APT   N/A     34  28  80 CALM      30.31S
LEONARDTOWN    CLOUDY    32  27  80 CALM      30.31S
DOVER          CLOUDY    31  28  89 W1        30.28
GEORGETOWN     CLOUDY    29  25  85 CALM      30.30S
EASTON         CLOUDY    32  32  99 CALM      30.33S
CAMBRIDGE      CLOUDY    32  28  86 CALM      30.29F
SALISBURY      CLOUDY    32  27  81 CALM      30.30S
OCEAN CITY     CLOUDY    31  26  82 CALM      30.30S
WALLOPS ISLAND CLOUDY    32  26  78 N5        30.30F
ACCOMACK*      CLOUDY    32  27  80 NE3       30.29S
$$

NCZ012>017-030>032-211100-
NORTH CENTRAL AND EASTERN NORTH CAROLINA

CITY           SKY/WX    TMP DP  RH WIND       PRES   REMARKS
ROANOKE RAPIDS CLOUDY    32  30  93 CALM      30.28S
RALEIGH        CLOUDY    38  34  85 NE3       30.26F FOG
ELIZABETH CITY CLEAR     38  30  73 N7        30.28F
AHOSKIE*       CLOUDY    30  28  93 CALM      30.29S
EDENTON*         N/A     31  29  90 CALM      30.28S
CURRITUCK*     CLEAR     31  29  90 CALM      30.29S
KILL DEVIL HLS CLEAR     40  34  77 N6        30.25S
MANTEO         CLEAR     38  34  82 N6        30.26F
CAPE HATTERAS  CLEAR     43  37  79 NE10G18   30.24S
TARBORO*       MOSUNNY   30  30 100 CALM      30.29S FOG
GOLDSBORO      CLEAR     34  33  98 N1        30.25S
WASHINGTON     CLEAR     31  30  94 N3        30.28R
GREENVILLE     CLEAR     32  32 100 CALM      30.28S
NEW BERN       CLEAR     36  31  82 NE6       30.27S
WILMINGTON     CLOUDY    38  35  89 NE7       30.24R
$$

VAZ048-211100-
ELSEWHERE

CITY           SKY/WX    TMP DP  RH WIND       PRES   REMARKS
HARRISBURG PA  MOCLDY    28  22  78 N3        30.29F
BALTIMORE      CLOUDY    32  24  72 NW3       30.30S
ANNAPOLIS      CLOUDY    34  27  75 CALM      30.30S
ANDREWS AFB    CLOUDY    32  26  78 N3        30.29S
PHILADELPHIA   CLOUDY    32  22  66 NW6       30.31S
HENDERSON NC   CLOUDY    34  33  95 CALM      30.26S
GREENSBORO     CLOUDY    38  34  85 CALM      30.22F FOG
ROCKY MOUNT    MOCLDY    32  30  92 CALM      30.28S
$$

VAZ100-211100-
MARINE

STATION/POSITION TIME  TEMP    WIND        PRES    WAVE   SWELL
                       AIR SEA DIR/SP/G            HT/PER HT/PER
                 (UTC) (F)     (DEG/KT/KT) (MB)    (FT/S) (FT/S)
CAPE MAY NJ      1000   30 42   90/  1/  2 1025.5R
LEWES DE         1000   30 42  250/  2/  3 1025.8S
15NM E FENWICK I 1000   36 45              1025.5S   1/10
OCEAN-CITY-INLET 1000   33 43  350/  3/  5 1025.5S
WACHAPREAGUE VA  1000   32 40  360/  2/  3 1025.7S
THOMAS POINT MD  1000   35 41  330/  5/  6 1027.2S
GOOSES REEF MD   1000   36     VRB  4/  6  1025.0F
COVE POINT MD    1000   34     320/  3/  5 1025.8R
SOLOMONS ISLAND  1000      42                N/A
BISHOPS HEAD MD  1000   34 37   10/  3/  4 1025.4S
POTOMAC MD       1000   36     360/  6/  6 1025.0F
CAMBRIDGE MD     1000   33 40   CALM  /  1 1025.9S
LEWISETTA VA     1000   36 41  300/  3/  4 1025.8R
RAPPAHANNOCK LGT 1000           40/  7/  7 1026.2S
STINGRAY PT      1000   38      20/  6/  8 1026.2F
YORK RVR RNG VA  1000   38      20/  8/  9 1025.1F
YORKTOWN VA      1000   36 45   10/  5/  6 1025.6S
JAMESTOWN VA     1000   35      50/  4/  4   N/A
DOMINION TERM VA 1000   36      70/  1/  3 1025.6S
KIPTOPEKE VA     1000      48   60/  4/  5   N/A
CHES BAY BRIDGE  1000   38 45  360/  8/  9 1025.1S
CAPE HENRY VA    1000   38      10/ 10/ 11 1024.1S
CHESAPEAKE LGHT  0900   39     360/ 11/ 12 1026.1F
WILLOUBY STN VA  1000   38     360/  7/  8 1025.8F
S CRANEY ISL VA  1000           20/  8/  9 1025.3F
CAPE HENRY BUOY  1000      49                N/A     2/11
1ST LANDING BUOY 1000   38      20/  8/ 10 1025.1S
CAPE CHARLES BUO 1000      47                N/A     1/11   2/11
64NM E OF VA BCH 1000   43 54  350/ 12/ 16 1024.0F   2/ 3   2/10
DUCK PIER NC     1000   41 46   10/ 11/ 14 1023.7S
44100 DUCK FRF   0900      51                N/A     2/ 3
44056 DUCK FRF   1000      46                N/A     2/ 5
OREGON INLET NC  1000   42 49  360/  8/ 12 1024.4F
HATTERAS NC      1000   45 49   20/ 15/ 18 1024.0S
DIAMOND SHLS NC  1000   49                 1023.1F   3/ 4
CAPE LOOKOUT NC  0900   42      20/ 11/ 13 1023.6R
$$



USA.gov is the U.S. government's official web portal to all federal, state and local government web resources and services.